Regional Weather Roundup
Issued by NWS

Home | Current Version | Previous Version | Text Only | Print | Product List | Glossary Off
Versions: 1 2 3 4 5 6 7 8 9 10 11 12 13 14 15 16 17 18 19 20 21 22 23 24 25 26 27 28 29 30 31 32 33 34 35 36 37 38 39 40 41 42 43 44 45 46 47 48 49 50

000
ASUS43 KBIS 092302
RWRND

NORTH DAKOTA REGIONAL WEATHER ROUNDUP
NATIONAL WEATHER SERVICE BISMARCK ND
500 PM CST FRI DEC 09 2016

NOTE: "FAIR" INDICATES FEW OR NO CLOUDS BELOW 12,000 FEET WITH NO
SIGNIFICANT WEATHER AND/OR OBSTRUCTIONS TO VISIBILITY.


NDZ001>003-009>011-017-100000-
NORTHWEST NORTH DAKOTA

CITY           SKY/WX    TMP DP  RH WIND       PRES   REMARKS
WILLISTON      CLOUDY    -5 -13  68 NE3       30.53S
MINOT          CLOUDY   -11 -17  75 NW10      30.52F WCI -30
MINOT AFB      CLOUDY   -14 -19  75 NW9       30.52F WCI -32
$$

NDZ018>021-031>035-040>046-100000-
SOUTHWEST NORTH DAKOTA

CITY           SKY/WX    TMP DP  RH WIND       PRES   REMARKS
BISMARCK       CLOUDY    -4 -10  75 NW8       30.54S WCI -19
DICKINSON      CLOUDY    -8 -13  78 CALM      30.41S
GARRISON         N/A    -10 -15  78 NW7       30.51S WCI -25
HETTINGER ARPT CLOUDY    -4  -9  79 NE5       30.43S WCI -15
$$

NDZ004>008-012>016-024-026-027-054-100000-
NORTHEAST NORTH DAKOTA

CITY           SKY/WX    TMP DP  RH WIND       PRES   REMARKS
GRAND FORKS    CLEAR     -5 -11  75 W7        30.56S WCI -19
GRND FRKS AFB  PTCLDY    -4 -13  66 NW7       30.56S WCI -18
DEVILS LAKE    LGT SNOW  -9 -13  83 W13       30.52F FOG     WCI -29
$$

NDZ022-023-025-028>030-036>039-047>053-100000-
SOUTHEAST NORTH DAKOTA

CITY           SKY/WX    TMP DP  RH WIND       PRES   REMARKS
FARGO          CLEAR      4  -4  69 NW9       30.56R WCI -10
JAMESTOWN      CLEAR     -7 -12  79 NW9       30.52S WCI -24
$$





USA.gov is the U.S. government's official web portal to all federal, state and local government web resources and services.